EW5043 Weather Reports


time (UTC)temp
F
wind
direction
speed
knots
gust
knots
rain 1hr
in
rain 24hr
in
rain mn
in
humidity
%
barometer
mb
20260506181610 44 5 7.0 0.0 0.00 0.00 0.56 100 1008.5
20260506180036 45 44 4.3 0.0 0.00 0.00 0.56 100 1008.2
20260506174526 44 37 7.0 0.0 0.00 0.00 0.56 100 1007.7
20260506173115 44 37 6.1 0.0 0.00 0.00 0.56 100 1007.9
20260506171508 44 37 4.3 0.0 0.00 0.00 0.56 100 1007.9
20260506170058 44 355 5.2 0.0 0.00 0.00 0.56 100 1007.7
20260506164549 44 34 6.1 0.0 0.00 0.00 0.56 100 1007.5
20260506163040 44 355 7.0 0.0 0.00 0.00 0.56 100 1007.5
20260506161530 44 34 6.1 0.0 0.00 0.00 0.56 100 1007.6
20260506160023 44 40 6.1 0.0 0.00 0.00 0.56 100 1007.8
20260506154512 44 43 6.1 0.0 0.00 0.00 0.56 100 1007.7
20260506153114 44 44 4.3 0.0 0.00 0.00 0.56 100 1007.9
20260506151655 44 20 6.1 0.0 0.00 0.00 0.56 100 1007.9
20260506150053 44 25 6.1 0.0 0.00 0.00 0.56 100 1007.6
20260506144537 44 59 6.1 0.0 0.00 0.00 0.56 100 1007.5
20260506143032 44 24 7.0 0.0 0.00 0.00 0.56 100 1007.2
20260506141519 44 53 3.5 0.0 0.00 0.00 0.56 100 1007.4
20260506140112 44 55 3.5 0.0 0.00 0.00 0.56 100 1007.3
20260506133053 45 50 4.3 0.0 0.00 0.00 0.56 100 1007.3
20260506131551 45 86 3.5 0.0 0.00 0.00 0.56 100 1007.3
20260506130037 45 86 2.6 0.0 0.00 0.00 0.56 100 1007.4
20260506124526 45 43 3.5 0.0 0.00 0.00 0.56 100 1007.3
20260506123121 45 44 3.5 0.0 0.00 0.00 0.55 100 1007.5
20260506121508 46 55 2.6 0.0 0.00 0.00 0.55 100 1007.3
20260506114555 45 88 2.6 0.0 0.00 0.00 0.54 100 1007.1
20260506113044 45 66 4.3 0.0 0.00 0.00 0.54 100 1007.1
20260506111533 45 68 4.3 0.0 0.00 0.00 0.53 100 1007.4
20260506110024 45 103 4.3 0.0 0.00 0.00 0.52 100 1007.2
20260506104616 46 58 2.6 0.0 0.00 0.00 0.50 100 1007.7
20260506103106 46 66 0.9 0.0 0.00 0.00 0.46 100 1007.7
20260506101558 46 61 0.9 0.0 0.00 0.00 0.42 100 1007.4
20260506100047 46 83 0.9 0.0 0.00 0.00 0.40 100 1007.1
20260506094540 46 103 0.0 0.0 0.00 0.00 0.40 100 1007.0
20260506093030 46 101 0.0 0.0 0.00 0.00 0.40 100 1006.9
20260506091520 46 120 0.0 0.0 0.00 0.00 0.38 100 1007.1
20260506090019 46 101 0.0 0.0 0.00 0.00 0.37 100 1007.8
20260506083053 46 101 0.0 0.0 0.00 0.00 0.35 100 1007.8
20260506081646 46 101 0.9 0.0 0.00 0.00 0.32 100 1007.7
20260506080136 46 95 3.5 0.0 0.00 0.00 0.30 100 1007.5
20260506073018 46 96 3.5 0.0 0.00 0.00 0.26 100 1007.6
20260506071507 46 113 3.5 0.0 0.00 0.00 0.24 100 1007.7
20260506070104 46 117 4.3 0.0 0.00 0.00 0.20 100 1007.9
20260506061532 47 104 4.3 0.0 0.00 0.00 0.14 100 1008.0
20260506060123 47 70 1.7 0.0 0.00 0.00 0.12 100 1008.5
20260506044538 47 78 2.6 0.0 0.00 0.00 0.04 100 1008.5
20260506043028 48 61 3.5 0.0 0.00 0.00 0.03 100 1008.7
20260506041520 48 53 3.5 0.0 0.00 0.00 0.01 100 1008.9
20260506040012 48 28 4.3 0.0 0.00 0.00 0.00 100 1008.6
20260506034615 48 169 0.0 0.0 0.00 0.00 0.24 100 1008.4
20260506033051 48 175 0.9 0.0 0.00 0.00 0.24 100 1008.3
20260506031544 48 175 0.9 0.0 0.00 0.00 0.23 100 1008.4
20260506030135 48 360 0.0 0.0 0.00 0.00 0.23 100 1008.4
20260506024626 48 360 0.0 0.0 0.00 0.00 0.21 100 1008.9
20260506023016 48 360 0.0 0.0 0.00 0.00 0.19 100 1008.8
20260506021507 48 360 0.0 0.0 0.00 0.00 0.17 100 1009.0
20260506020058 48 360 0.0 0.0 0.00 0.00 0.17 100 1008.8
20260506014648 48 360 0.0 0.0 0.00 0.00 0.16 100 1008.7
20260506013058 47 360 0.0 0.0 0.00 0.00 0.15 100 1008.2
20260506011529 47 360 0.0 0.0 0.00 0.00 0.14 100 1008.2
20260506010025 47 360 0.0 0.0 0.00 0.00 0.10 100 1008.1
20260506004611 46 360 0.0 0.0 0.00 0.00 0.08 100 1008.0
20260506003002 46 360 1.7 0.0 0.00 0.00 0.07 100 1007.8
20260506001553 46 351 4.3 0.0 0.00 0.00 0.07 100 1007.4
20260506000044 47 336 3.5 0.0 0.00 0.00 0.07 100 1007.5
20260505234537 46 338 5.2 0.0 0.00 0.00 0.06 100 1007.3
20260505233128 47 337 8.7 0.0 0.00 0.00 0.05 100 1006.9
20260505231621 49 343 7.8 0.0 0.00 0.00 0.02 100 1006.6
20260505224601 51 285 7.0 0.0 0.00 0.00 0.02 100 1006.3
20260505223106 53 307 7.0 0.0 0.00 0.00 0.02 100 1005.6
20260505221543 55 304 7.0 0.0 0.00 0.00 0.02 100 1005.2
20260505220041 57 286 6.1 0.0 0.00 0.00 0.02 100 1004.7
20260505214526 58 298 5.2 0.0 0.00 0.00 0.02 100 1004.2
20260505213017 57 293 4.3 0.0 0.00 0.00 0.02 100 1003.8
20260505211506 56 299 4.3 0.0 0.00 0.00 0.02 100 1003.7
20260505210057 55 302 4.3 0.0 0.00 0.00 0.02 100 1003.6
20260505204649 55 301 5.2 0.0 0.00 0.00 0.02 100 1003.5
20260505203046 54 301 4.3 0.0 0.00 0.00 0.02 100 1003.4
20260505201528 55 307 7.0 0.0 0.00 0.00 0.02 100 1003.0
20260505200119 55 320 4.3 0.0 0.00 0.00 0.02 100 1002.8
20260505194615 55 292 3.5 0.0 0.00 0.00 0.02 100 1002.8
20260505193101 55 315 1.7 0.0 0.00 0.00 0.02 3 1002.6
20260505191552 57 303 3.5 0.0 0.00 0.00 0.02 25 1002.7
20260505190045 61 301 4.3 0.0 0.00 0.00 0.02 29 1002.5
20260505184534 61 307 4.3 0.0 0.00 0.00 0.02 20 1002.4
20260505183025 60 304 4.3 0.0 0.00 0.00 0.02 10 1002.4